Starlink 31553

operational
NORAD ID: 59363 Int'l Des: 2024-060 Owner: SPXS Country: US Constellation: starlink
LEOCIRCULAR

About Starlink 31553

Description loading...

Live Position

Loading 3D Globe...

Upcoming Passes

Altitude History

Altitude vs Time

uPlot chart will show altitude changes over time

Two-Line Element Set

1 59363U 24060R 25350.13483370 -.00000406 00000-0 -52494-5 0 9993
2 59363 43.0022 4.8395 0000974 269.7785 90.2955 15.27584117 97368
Epoch: Dec 16, 2025 • Age: 24 hours

Current Status

Altitude 483.1 km
Velocity 7.63 km/s
Sub-Earth Point -2.63°S, 130.87°W
Launch Date Mar 31, 2024
Age 1.7 years
Type internet

Technical Details

Classification Payload
Mass 730.00 kg
Dry Mass 700.00 kg
Total Mass 730.00 kg
Length 0.30 m
Diameter 4.10 m
Span 29.00 m
Shape Box + pan
Manufacturer SPXS
Bus Type Starlink V2M
Phase Status In Orbit
Owner/State SPXS/US

Large Constellations

Loading constellations...